White Mountain, AK

6:02 PM AKST on November 21, 2017 (GMT -0900)
White Mountain

Weather History for PAWM - November, 2012

Change the Weather History Date:

Thursday, November 1, 2012

  Actual Average (PAOM) Record (PAOM)
Temperature  
Mean Temperature 16 °F -  
Max Temperature 21 °F 26 °F 50 °F (1928)
Min Temperature 10 °F 12 °F -6 °F (1992)
Degree Days  
Heating Degree Days 50    
Moisture  
Dew Point 8 °F    
Average Humidity 75    
Maximum Humidity 84    
Minimum Humidity 63    
Precipitation  
Precipitation 0.00 in - - ()
Sea Level Pressure  
Sea Level Pressure 30.30 in    
Wind  
Wind Speed 11 mph ()    
Max Wind Speed 16 mph    
Max Gust Speed -    
Visibility 9.4 miles    
Events      
Averages and records for this station are not official NWS values.
T = Trace of Precipitation, MM = Missing Value Source: Averaged Metar Reports

Daily Weather History Graph

Daily Weather History Graph

Search for Another Location

Airport or City:

Trip Planner

Search our weather history database for the weather conditions in past years. The results will help you decide how hot, cold, wet, or windy it might be!

Date:

Astronomy

Nov. 01, 2012 Rise Set
Actual Time 10:42 AM AKDT 6:30 PM AKDT
Civil Twilight 9:47 AM AKDT 7:25 PM AKDT
Nautical Twilight 8:49 AM AKDT 8:23 PM AKDT
Astronomical Twilight 7:52 AM AKDT 9:20 PM AKDT
Moon 7:33 PM AKDT (11/1) 2:29 PM AKDT (11/1)
Length of Visible Light 9h 37m
Length of Day
7h 47m
Waning Gibbous, 92% of the Moon is Illuminated
Nov 1
Waning Gibbous
Nov 6
Last Quarter
Nov 13
New
Nov 20
First Quarter
Nov 28
Full

Hourly Weather History & Observations

Time (AKDT) Temp. Windchill Dew Point Humidity Pressure Visibility Wind Dir Wind Speed Gust Speed Precip Events Conditions
12:58 AM 15.1 °F 1.1 °F 8.1 °F 74% 30.35 in 10.0 mi North 12.7 mph - N/A   Clear
1:58 AM 15.1 °F 0.5 °F 8.1 °F 74% 30.35 in 10.0 mi NNW 13.8 mph - N/A   Clear
2:58 AM 14.0 °F -0.8 °F 7.0 °F 74% 30.35 in 10.0 mi NNW 13.8 mph - N/A   Clear
3:58 AM 12.9 °F -2.8 °F 7.0 °F 77% 30.34 in 10.0 mi North 15.0 mph - N/A   Clear
4:58 AM 15.1 °F -0.6 °F 8.1 °F 74% 30.33 in 10.0 mi North 16.1 mph - N/A   Clear
5:58 AM 15.1 °F 0.5 °F 8.1 °F 74% 30.32 in 10.0 mi North 13.8 mph - N/A   Clear
6:58 AM 12.9 °F -1.6 °F 7.0 °F 77% 30.32 in 10.0 mi North 12.7 mph - N/A   Clear
7:58 AM 12.0 °F -1.3 °F 7.0 °F 80% 30.32 in 10.0 mi NNW 10.4 mph - N/A   Clear
8:58 AM 12.0 °F -1.3 °F 7.0 °F 80% 30.32 in 10.0 mi North 10.4 mph - N/A   Clear
9:58 AM 12.9 °F -0.2 °F 7.0 °F 77% 30.32 in 10.0 mi North 10.4 mph - N/A   Clear
10:58 AM 10.9 °F -4.7 °F 7.0 °F 84% 30.33 in 9.0 mi North 13.8 mph - N/A   Clear
11:58 AM 14.0 °F -0.2 °F 8.1 °F 77% 30.32 in 8.0 mi NNW 12.7 mph - N/A   Clear
12:58 PM 16.0 °F 1.1 °F 9.0 °F 74% 30.32 in 9.0 mi NNW 15.0 mph - N/A   Clear
1:58 PM 19.0 °F 7.5 °F 10.0 °F 68% 30.32 in 8.0 mi North 10.4 mph - N/A   Clear
2:58 PM 21.0 °F 9.3 °F 10.0 °F 63% 30.30 in 9.0 mi North 11.5 mph - N/A   Clear
3:58 PM 21.0 °F 8.6 °F 10.0 °F 63% 30.30 in 8.0 mi North 12.7 mph - N/A   Clear
4:58 PM 19.9 °F 9.3 °F 10.0 °F 65% 30.29 in 9.0 mi NNW 9.2 mph - N/A   Clear
5:58 PM 18.0 °F 5.4 °F 9.0 °F 68% 30.28 in 8.0 mi North 11.5 mph - N/A   Clear
6:58 PM 15.1 °F 1.8 °F 9.0 °F 77% 30.27 in 8.0 mi North 11.5 mph - N/A   Clear
7:58 PM 14.0 °F 0.5 °F 9.0 °F 80% 30.27 in 10.0 mi North 11.5 mph - N/A   Clear
8:58 PM 12.9 °F -1.6 °F 8.1 °F 81% 30.27 in 10.0 mi NNW 12.7 mph - N/A   Clear
9:58 PM 12.9 °F -1.6 °F 8.1 °F 81% 30.26 in 10.0 mi North 12.7 mph - N/A   Clear
10:58 PM 14.0 °F -0.8 °F 9.0 °F 80% 30.24 in 10.0 mi North 13.8 mph - N/A   Clear
11:58 PM 14.0 °F 0.5 °F 8.1 °F 77% 30.22 in 10.0 mi North 11.5 mph - N/A   Clear